Total_Precipitation_Accumulation
1.71 1.74 1.73 1.67 1.69 1.77 1.76 1.66 1.61 1.53 1.41 1.38 1.29 1.21 1.18 1.20 1.26 1.36 1.39 1.43 1.48 1.56 1.65 1.65 1.66 1.66 1.72 1.72 1.74 1.82 1.98 2.08 2.08 1.83 1.64 1.56 1.49 1.38 1.35 1.32 1.27 1.20 1.08
1.46 1.40 1.41 1.44 1.44 1.47 1.46 1.34 1.30 1.32 1.24 1.20 1.11 1.05 1.02 1.04 1.09 1.14 1.17 1.20 1.32 1.36 1.39 1.41 1.41 1.45 1.49 1.49 1.53 1.55 1.64 1.78 1.85 1.84 1.73 1.66 1.56 1.45 1.43 1.43 1.19 1.01 0.99
1.36 1.32 1.28 1.31 1.34 1.32 1.30 1.27 1.21 1.22 1.20 1.12 1.00 0.96 0.94 0.93 0.94 0.99 1.04 1.04 1.08 1.15 1.19 1.26 1.28 1.33 1.29 1.23 1.28 1.36 1.40 1.48 1.68 1.70 1.61 1.54 1.45 1.34 1.44 1.36 1.24 1.30 0.99
1.27 1.28 1.28 1.28 1.30 1.25 1.25 1.32 1.28 1.19 1.12 1.07 1.01 0.94 0.90 0.86 0.89 0.91 0.89 0.92 0.96 1.02 1.04 1.10 1.10 1.14 1.15 1.19 1.21 1.33 1.39 1.51 1.59 1.60 1.55 1.51 1.42 1.34 1.45 1.45 1.42 1.38 1.14
1.15 1.18 1.19 1.18 1.18 1.13 1.15 1.18 1.21 1.20 1.11 1.06 1.01 0.94 0.82 0.75 0.73 0.76 0.77 0.80 0.89 0.93 0.95 0.94 0.93 0.98 1.07 1.08 1.05 1.15 1.30 1.47 1.47 1.47 1.47 1.49 1.43 1.45 1.44 1.39 1.38 1.40 1.28
1.27 1.25 1.18 1.16 1.11 1.08 1.08 1.11 1.07 1.03 1.03 0.99 0.92 0.84 0.75 0.63 0.67 0.67 0.66 0.72 0.83 0.89 0.87 0.87 0.85 0.83 0.88 0.94 0.95 1.01 1.15 1.27 1.36 1.42 1.43 1.46 1.46 1.54 1.57 1.54 1.51 1.53 1.51
1.15 1.12 1.07 1.04 1.01 0.99 0.96 0.96 0.97 1.04 1.03 0.95 0.87 0.83 0.80 0.72 0.58 0.50 0.54 0.65 0.81 0.82 0.81 0.87 0.79 0.73 0.83 0.87 0.90 0.90 0.93 0.97 1.09 1.29 1.43 1.48 1.59 1.73 1.82 1.75 1.67 1.63 1.62
1.03 1.00 0.95 0.90 0.89 0.93 0.89 0.89 0.94 0.99 0.98 0.97 0.94 0.96 0.95 0.78 0.57 0.43 0.48 0.64 0.75 0.70 0.70 0.79 0.87 0.88 0.83 0.84 0.85 0.89 0.92 0.92 0.96 1.03 1.28 1.37 1.38 1.56 1.76 1.82 1.80 1.71 1.68
0.98 0.95 0.87 0.80 0.85 0.88 0.83 0.85 0.93 0.94 0.93 0.93 0.94 1.00 1.01 0.87 0.66 0.51 0.53 0.65 0.73 0.71 0.70 0.70 0.72 0.79 0.78 0.83 0.90 1.04 1.08 1.08 0.89 0.94 1.07 1.14 1.18 1.32 1.45 1.64 1.85 1.95 1.89
0.94 0.91 0.85 0.83 0.86 0.89 0.91 0.90 0.84 0.86 0.84 0.79 0.85 0.95 0.94 0.85 0.66 0.51 0.52 0.56 0.66 0.78 0.86 0.86 0.83 0.78 0.77 0.83 0.96 1.12 1.18 1.16 1.15 1.29 1.41 1.41 1.39 1.44 1.39 1.54 1.84 1.96 1.92
0.88 0.86 0.89 0.89 0.85 0.83 0.87 0.86 0.81 0.74 0.77 0.79 0.80 0.87 0.92 0.76 0.59 0.50 0.54 0.59 0.65 0.76 0.86 0.94 0.90 0.85 0.83 0.84 0.89 1.02 1.12 1.12 1.32 1.68 1.73 1.60 1.51 1.47 1.37 1.40 1.61 1.78 1.89
0.94 0.95 0.91 0.84 0.72 0.70 0.81 0.81 0.76 0.76 0.79 0.85 0.86 0.89 0.83 0.68 0.52 0.46 0.52 0.58 0.61 0.70 0.84 0.84 0.84 0.85 0.84 0.87 0.89 1.00 1.10 1.24 1.50 1.84 1.81 1.61 1.46 1.37 1.30 1.24 1.33 1.48 1.66
1.04 1.02 0.96 0.84 0.76 0.75 0.80 0.78 0.74 0.75 0.74 0.73 0.74 0.80 0.75 0.63 0.55 0.48 0.49 0.51 0.52 0.58 0.69 0.74 0.73 0.73 0.77 0.91 0.98 1.05 1.18 1.41 1.62 1.72 1.63 1.44 1.31 1.26 1.23 1.20 1.20 1.34 1.43
1.09 1.01 0.97 0.89 0.80 0.75 0.74 0.67 0.68 0.71 0.71 0.70 0.68 0.69 0.64 0.59 0.52 0.45 0.46 0.46 0.46 0.48 0.57 0.68 0.77 0.81 0.90 1.04 1.20 1.29 1.32 1.40 1.46 1.51 1.42 1.29 1.18 1.18 1.18 1.08 1.12 1.23 1.36
1.05 0.91 0.86 0.81 0.75 0.76 0.72 0.63 0.60 0.61 0.62 0.62 0.58 0.53 0.51 0.48 0.42 0.45 0.46 0.46 0.46 0.48 0.53 0.66 0.88 1.02 1.11 1.15 1.19 1.28 1.29 1.24 1.23 1.20 1.18 1.17 1.17 1.18 1.13 1.02 1.06 1.11 1.23
0.93 0.82 0.74 0.67 0.65 0.58 0.59 0.58 0.55 0.51 0.49 0.50 0.50 0.43 0.38 0.40 0.40 0.40 0.41 0.42 0.47 0.53 0.56 0.72 0.92 1.03 1.10 1.15 1.16 1.16 1.14 1.10 1.05 1.04 1.03 1.00 1.00 1.04 1.08 1.06 1.06 1.10 1.18
0.85 0.79 0.70 0.67 0.63 0.54 0.54 0.59 0.60 0.50 0.43 0.43 0.42 0.40 0.36 0.34 0.34 0.34 0.35 0.34 0.39 0.48 0.58 0.78 0.91 0.95 1.05 1.14 1.11 1.08 1.07 1.00 0.95 0.92 0.92 0.88 0.83 0.87 0.96 1.03 1.08 1.14 1.17
0.71 0.67 0.64 0.64 0.61 0.58 0.57 0.57 0.56 0.59 0.58 0.48 0.36 0.32 0.31 0.33 0.32 0.32 0.33 0.34 0.43 0.50 0.65 0.83 0.88 0.88 0.92 0.98 0.99 1.01 1.02 0.96 0.91 0.92 0.92 0.90 0.86 0.84 0.90 0.97 1.01 1.03 1.06
0.64 0.63 0.63 0.61 0.59 0.55 0.52 0.54 0.54 0.57 0.60 0.55 0.45 0.36 0.33 0.37 0.40 0.43 0.42 0.44 0.51 0.56 0.61 0.67 0.75 0.82 0.85 0.86 0.88 0.88 0.91 0.93 0.88 0.87 0.88 0.87 0.86 0.86 0.88 0.88 0.87 0.83 0.86
0.55 0.56 0.59 0.57 0.56 0.55 0.51 0.52 0.56 0.58 0.58 0.56 0.49 0.42 0.42 0.48 0.52 0.51 0.49 0.47 0.51 0.55 0.60 0.67 0.73 0.75 0.77 0.79 0.78 0.76 0.76 0.80 0.81 0.77 0.75 0.76 0.78 0.79 0.80 0.79 0.79 0.80 0.80
0.48 0.46 0.46 0.45 0.45 0.45 0.44 0.43 0.49 0.55 0.55 0.53 0.46 0.43 0.49 0.51 0.56 0.56 0.55 0.55 0.56 0.57 0.60 0.68 0.70 0.69 0.67 0.69 0.75 0.74 0.73 0.72 0.71 0.71 0.68 0.65 0.63 0.63 0.60 0.58 0.59 0.61 0.67
0.44 0.40 0.35 0.34 0.34 0.37 0.40 0.39 0.42 0.45 0.45 0.47 0.44 0.42 0.46 0.46 0.50 0.52 0.54 0.55 0.54 0.55 0.59 0.67 0.68 0.64 0.62 0.65 0.73 0.76 0.72 0.67 0.63 0.65 0.64 0.59 0.55 0.53 0.53 0.53 0.53 0.55 0.60
0.43 0.40 0.34 0.32 0.33 0.38 0.42 0.45 0.46 0.47 0.47 0.46 0.44 0.42 0.43 0.46 0.48 0.53 0.55 0.52 0.50 0.50 0.51 0.55 0.59 0.60 0.61 0.62 0.64 0.62 0.63 0.62 0.59 0.58 0.64 0.63 0.59 0.55 0.54 0.53 0.51 0.52 0.53
0.42 0.41 0.40 0.38 0.40 0.45 0.45 0.42 0.43 0.44 0.45 0.47 0.45 0.43 0.44 0.46 0.48 0.51 0.56 0.56 0.55 0.54 0.51 0.52 0.55 0.55 0.54 0.57 0.56 0.50 0.48 0.52 0.53 0.54 0.58 0.57 0.54 0.55 0.57 0.56 0.54 0.55 0.56
0.36 0.38 0.40 0.41 0.44 0.45 0.44 0.43 0.44 0.45 0.47 0.51 0.51 0.47 0.46 0.43 0.43 0.43 0.49 0.54 0.54 0.51 0.48 0.45 0.45 0.43 0.43 0.43 0.43 0.43 0.47 0.48 0.47 0.50 0.53 0.53 0.47 0.47 0.51 0.49 0.48 0.51 0.55
0.35 0.40 0.42 0.46 0.50 0.50 0.48 0.48 0.48 0.49 0.48 0.46 0.47 0.50 0.51 0.49 0.46 0.45 0.46 0.48 0.46 0.44 0.44 0.45 0.42 0.39 0.35 0.32 0.34 0.40 0.40 0.35 0.34 0.38 0.43 0.49 0.47 0.46 0.49 0.49 0.45 0.49 0.52